E22FEY-1 Weather Reports


time (UTC)temp
C
wind
direction
speed
KPH
gust
KPH
rain 1hr
cm
rain 24hr
cm
rain mn
cm
humidity
%
barometer
mb
20260505031737 36 0 0.0 0.0 0.00 0.00 0.00 41 1011.0
20260505030213 36 0 0.0 0.0 0.00 0.00 0.00 41 1011.0
20260505024648 35 0 0.0 0.0 0.00 0.00 0.00 42 1011.0
20260505023123 36 0 0.0 0.0 0.00 0.00 0.00 43 1011.0
20260505021558 35 0 0.0 0.0 0.00 0.00 0.00 43 1011.0
20260505020033 34 0 0.0 0.0 0.00 0.00 0.00 45 1011.0
20260505014508 35 0 0.0 0.0 0.00 0.00 0.00 45 1011.0
20260505012944 33 0 0.0 0.0 0.00 0.00 0.00 48 1011.0
20260505011419 34 0 0.0 0.0 0.00 0.00 0.00 48 1011.0
20260505005855 36 0 0.0 0.0 0.00 0.00 0.00 44 1011.0
20260505004330 36 0 0.0 0.0 0.00 0.00 0.00 47 1010.0
20260505002752 32 0 0.0 0.0 0.00 0.00 0.00 57 1010.0
20260505002644 32 0 0.0 0.0 0.00 0.00 0.00 58 1010.0
20260505002529 31 0 0.0 0.0 0.00 0.00 0.00 59 1010.0
20260505002408 31 0 0.0 0.0 0.00 0.00 0.00 60 1010.0
20260505002205 31 0 0.0 0.0 0.00 0.00 0.00 60 1010.0
20260505002052 30 0 0.0 0.0 0.00 0.00 0.00 61 1010.0
20260505001859 30 0 0.0 0.0 0.00 0.00 0.00 61 1010.0
20260505001743 30 0 0.0 0.0 0.00 0.00 0.00 61 1010.0
20260505001625 30 0 0.0 0.0 0.00 0.00 0.00 61 1010.0
20260505001442 30 0 0.0 0.0 0.00 0.00 0.00 63 1010.0
20260505000606 28 0 0.0 0.0 0.00 0.00 0.00 66 1010.0
20260504235042 28 0 0.0 0.0 0.00 0.00 0.00 67 1010.0
20260504233518 28 0 0.0 0.0 0.00 0.00 0.00 68 1009.0
20260504231953 28 0 0.0 0.0 0.00 0.00 0.00 68 1009.0
20260504230429 27 0 0.0 0.0 0.00 0.00 0.00 68 1009.0
20260504224904 27 0 0.0 0.0 0.00 0.00 0.00 69 1009.0
20260504223340 27 0 0.0 0.0 0.00 0.00 0.00 68 1009.0
20260504221816 27 0 0.0 0.0 0.00 0.00 0.00 69 1009.0
20260504220252 26 0 0.0 0.0 0.00 0.00 0.00 71 1009.0
20260504214728 27 0 0.0 0.0 0.00 0.00 0.00 71 1009.0
20260504213204 27 0 0.0 0.0 0.00 0.00 0.00 72 1009.0
20260504211639 26 0 0.0 0.0 0.00 0.00 0.00 74 1009.0
20260504210113 27 0 0.0 0.0 0.00 0.00 0.00 73 1009.0
20260504204549 27 0 0.0 0.0 0.00 0.00 0.00 71 1009.0
20260504203025 26 0 0.0 0.0 0.00 0.00 0.00 72 1009.0
20260504201500 27 0 0.0 0.0 0.00 0.00 0.00 69 1009.0
20260504195936 28 0 0.0 0.0 0.00 0.00 0.00 68 1009.0
20260504194411 28 0 0.0 0.0 0.00 0.00 0.00 69 1009.0
20260504192847 28 0 0.0 0.0 0.00 0.00 0.00 68 1009.0
20260504191322 28 0 0.0 0.0 0.00 0.00 0.00 68 1009.0
20260504185758 28 0 0.0 0.0 0.00 0.00 0.00 70 1009.0
20260504184232 27 0 0.0 0.0 0.00 0.00 0.00 71 1010.0
20260504182708 26 0 0.0 0.0 0.00 0.00 0.00 73 1010.0
20260504181144 26 0 0.0 0.0 0.00 0.00 0.00 75 1010.0
20260504175620 26 0 0.0 0.0 0.00 0.00 0.00 75 1011.0
20260504174056 25 0 0.0 0.0 0.00 0.00 0.00 77 1011.0
20260504172532 26 0 0.0 0.0 0.00 0.00 0.00 78 1011.0
20260504171008 26 0 0.0 0.0 0.00 0.00 0.00 79 1011.0
20260504150654 31 0 0.0 0.0 0.00 0.00 0.00 61 1010.0
20260504140517 31 0 0.0 0.0 0.00 0.00 0.00 62 1009.0
20260504130340 31 0 0.0 0.0 0.00 0.00 0.00 64 1009.0
20260504120202 31 0 0.0 0.0 0.00 0.00 0.00 61 1007.0
20260504081059 39 0 0.0 0.0 0.00 0.00 0.00 39 1006.0
20260504050608 38 0 0.0 0.0 0.00 0.00 0.00 44 1009.0
20260504045043 38 0 0.0 0.0 0.00 0.00 0.00 43 1009.0
20260504043519 38 0 0.0 0.0 0.00 0.00 0.00 45 1009.0
20260504041955 39 0 0.0 0.0 0.00 0.00 0.00 42 1009.0
20260504040431 39 0 0.0 0.0 0.00 0.00 0.00 41 1010.0
20260504034907 39 0 0.0 0.0 0.00 0.00 0.00 42 1010.0
20260504033342 38 0 0.0 0.0 0.00 0.00 0.00 44 1010.0